Flag for Tanzania Weather past 2 weeks in Arusha, Tanzania

Now
59 °F

Fog.


Feels Like: 58 °F
Forecast: 56 / 73 °F
Wind: 7 mph from North

Location: Kenyatta Airport

Current Time: Jul 26, 2014 at 4:36:08 AM

Latest Report: Jul 26, 2014 at 4:00 AM


Visibility: 2 mi

Pressure: 30.18 "Hg

Humidity: 94%

Dew point: 57 °F

Location of ArushaLocation

Historic Weather in Arusha — Graph

°F

Arusha temperature yesterday

Maximum temperature yesterday: 70 °F (at 1:00 PM)
Minimum temperature yesterday: 59 °F (at 4:00 AM)
Average temperature yesterday: 64 °F

Past Weeks' High & Low Weather Summary

 TemperatureHumidityPressure
High82 °F (Jul 14, 2:00 PM)100% (Jul 11, 11:00 AM)30.36 "Hg (Jul 11, 11:00 AM)
Low50 °F (Jul 14, 6:00 AM)34% (Jul 18, 3:00 PM)30.12 "Hg (Jul 18, 4:00 PM)
Average65 °F72%30.24 "Hg
* Reported Jul 11 3:00 AM — Jul 26 3:00 AM, Arusha, Weather by CustomWeather, © 2014

Note: Actual official high and low records may vary slightly from our data, if they occured in-between our weather recording intervals... More about our weather records

Advertising

Arusha weather history for previous 24 hours

 ConditionsComfort  
Time TempWeatherWind HumidityBarometerVisibility
3:00 AM
Jul 26
61 °FPartly cloudy.6 mph94%30.18 "HgN/A
2:00 AM61 °FPartly cloudy.5 mph94%30.21 "HgN/A
1:00 AM61 °FPartly cloudy.7 mph94%30.21 "HgN/A
12:00 AM61 °FPassing clouds.8 mph88%30.24 "HgN/A
11:00 PM
Jul 25
63 °FPartly cloudy.6 mph83%30.24 "HgN/A
10:00 PM63 °FPassing clouds.8 mph83%30.24 "HgN/A
9:00 PM64 °FPassing clouds.12 mph78%30.21 "HgN/A
8:00 PM64 °FPassing clouds.14 mph78%30.18 "HgN/A
7:00 PM64 °FPartly cloudy.12 mph78%30.18 "HgN/A
6:00 PM66 °FPartly sunny.13 mph73%30.15 "HgN/A
5:00 PM70 °FPartly sunny.12 mph64%30.15 "HgN/A
4:00 PM70 °FPartly sunny.9 mph60%30.15 "HgN/A
3:00 PM70 °FPartly sunny.5 mph60%30.18 "HgN/A
2:00 PM70 °FPartly sunny.6 mph60%30.18 "HgN/A
1:00 PM70 °FPartly sunny.3 mph60%30.21 "HgN/A
12:00 PM68 °FPartly sunny.3 mph64%30.24 "HgN/A
11:00 AM68 °FPartly sunny.3 mph64%30.27 "HgN/A
10:00 AM66 °FScattered clouds.5 mph68%30.27 "HgN/A
9:00 AM61 °FPartly sunny.5 mph83%30.27 "HgN/A
8:00 AM59 °FPartly sunny.2 mph88%30.24 "HgN/A
7:00 AM59 °FPartly sunny.3 mph94%30.24 "HgN/A
6:00 AM59 °FPassing clouds.6 mph94%30.24 "HgN/A
5:00 AM59 °FPassing clouds.3 mph94%30.21 "HgN/A
4:00 AM59 °FPassing clouds.5 mph88%30.21 "HgN/A
Weather by CustomWeather, © 2014

See weather overviewHow to use our weather pages